KB9JNN Weather Reports


Display with metric or nautical units.
time (UTC)temp
F
wind
direction
speed
MPH
gust
MPH
rain 1hr
in
rain 24hr
in
rain mn
in
humidity
%
barometer
mb
20260505073042 45 255 7.0 19.0 0.00 0.00 0.00 48 1004.2
20260505071533 45 271 6.0 12.0 0.00 0.00 0.00 51 1004.2
20260505070040 45 247 5.0 9.0 0.00 0.00 0.00 51 1004.3
20260505064533 46 248 6.0 14.0 0.00 0.00 0.00 49 1004.1
20260505063035 47 259 9.0 15.0 0.00 0.00 0.00 46 1004.0
20260505061540 48 246 9.0 16.0 0.00 0.00 0.00 47 1004.1
20260505060034 48 281 10.0 17.0 0.00 0.00 0.00 49 1003.8
20260505054538 48 264 10.0 20.0 0.00 0.00 0.00 48 1003.7
20260505053036 49 255 10.0 19.0 0.00 0.00 0.00 47 1003.5
20260505051536 49 250 12.0 22.0 0.00 0.00 0.00 47 1003.2
20260505041546 52 252 12.0 17.0 0.00 0.00 0.00 47 1001.8
20260505040048 53 229 8.0 13.0 0.00 0.00 0.00 47 1001.5
20260505034536 53 243 9.0 21.0 0.00 0.00 0.00 45 1001.3
20260505033030 54 207 10.0 19.0 0.00 0.00 0.00 47 1000.9
20260505031539 54 257 11.0 17.0 0.00 0.00 0.00 45 1000.6
20260505030032 55 283 7.0 13.0 0.00 0.00 0.00 46 999.8
20260505024543 56 251 10.0 19.0 0.00 0.00 0.00 43 999.0
20260505023038 56 248 10.0 18.0 0.00 0.00 0.00 43 999.1
20260505021534 58 238 11.0 20.0 0.00 0.00 0.00 41 999.2
20260505020036 59 243 11.0 19.0 0.00 0.00 0.00 37 999.1
20260505014553 60 251 11.0 19.0 0.00 0.00 0.00 34 998.6
20260505013035 60 233 9.0 17.0 0.00 0.00 0.00 33 998.2
20260505011535 61 255 11.0 19.0 0.00 0.00 0.00 31 998.0
20260505010033 62 252 9.0 18.0 0.00 0.00 0.00 34 997.6
20260505004540 63 239 10.0 20.0 0.00 0.00 0.00 33 997.3
20260505003032 64 236 9.0 19.0 0.00 0.00 0.00 34 997.0
20260505001535 64 236 10.0 17.0 0.00 0.00 0.00 34 996.9
20260505000045 65 241 11.0 18.0 0.00 0.00 0.00 33 996.7
20260504234538 66 224 13.0 21.0 0.00 0.00 0.00 32 996.4
20260504233043 66 243 11.0 20.0 0.00 0.00 0.00 32 996.3
20260504231532 67 239 14.0 20.0 0.00 0.00 0.00 32 996.2
20260504230038 68 266 11.0 21.0 0.00 0.00 0.00 34 996.1
20260504224539 69 224 10.0 22.0 0.00 0.00 0.00 35 996.0
20260504223052 70 229 12.0 23.0 0.00 0.00 0.00 35 995.8
20260504221538 70 243 16.0 23.0 0.00 0.00 0.00 34 995.5
20260504220036 71 252 13.0 22.0 0.00 0.00 0.00 36 995.4
20260504214535 71 228 12.0 22.0 0.00 0.00 0.00 39 995.3
20260504213049 72 245 14.0 22.0 0.00 0.00 0.00 36 995.0
20260504211535 73 217 15.0 27.0 0.00 0.00 0.00 35 995.0
20260504210040 74 243 14.0 26.0 0.00 0.00 0.00 36 994.7
20260504204544 75 226 8.0 18.0 0.00 0.00 0.00 39 994.8
20260504203042 75 224 11.0 20.0 0.00 0.00 0.00 37 994.8
20260504201535 74 205 10.0 19.0 0.00 0.00 0.00 36 994.7
20260504200035 74 207 7.0 16.0 0.00 0.00 0.00 37 994.9
20260504194533 75 206 11.0 21.0 0.00 0.00 0.00 36 994.9
20260504193030 74 193 13.0 24.0 0.00 0.00 0.00 35 994.9
20260504191536 74 217 13.0 19.0 0.00 0.00 0.00 35 995.0
20260504190037 75 223 11.0 22.0 0.00 0.00 0.00 34 994.9
20260504184535 75 189 11.0 23.0 0.00 0.00 0.00 33 995.1
20260504183034 75 229 11.0 28.0 0.00 0.00 0.00 33 995.1
20260504181543 74 240 14.0 26.0 0.00 0.00 0.00 33 995.1
20260504180035 74 198 13.0 23.0 0.00 0.00 0.00 35 994.9
20260504174536 74 174 13.0 25.0 0.00 0.00 0.00 34 995.1
20260504173032 73 208 11.0 25.0 0.00 0.00 0.00 34 995.2
20260504171542 74 191 16.0 23.0 0.00 0.00 0.00 33 995.4
20260504081538 46 174 1.0 3.0 0.00 0.00 0.00 72 1001.7